Date String (YYYY-MM-DD hh:mm:ss) UTC,Instrument flags,absolute air pressure of the measurement (hPa),sample flow rate (lpm),inlet stack bypass flow (lpm),air temperature of the measurement (°C),ambient temperature measured by the external sensor (°C),aerosol sample conditioner tube jacket temperature (°C),OPC LED temperature (°C),internal box temperature (°C),relative humidity of the measurement (%),span deviation,mass concentration of particles derived from Lorenz-Mie calculation of OPC scattering (μg/m³),mass concentration of particles derived from Lorenz-Mie calculation of OPC scattering (μg/m³),mass concentration of particles derived from Lorenz-Mie calculation of OPC scattering (μg/m³)
DateTimeUTC,F1_M11,P_M11,Q1_M11,Q2_M11,T1_M11,T2_M11,T3_M11,T4_M11,T5_M11,U1_M11,ZSPAN_M11,X0_M11,X2_M11,X1_M11
2023-09-25 11:00:00,SystemResetWarning,0835.5,5.00,000.00,028.2,026.7,000.0,036.6,029.7,9.2,0000.0,0005.49,0003.32,0002.92
2023-09-25 11:01:00,SystemResetWarning,0835.6,5.02,000.00,028.2,026.7,000.0,036.6,029.7,9.2,0000.0,0005.20,0003.30,0002.91
2023-09-25 11:02:00,SystemResetWarning,0835.6,5.00,000.00,028.2,026.7,000.0,036.6,029.7,9.2,0000.0,0005.40,0003.28,0002.91
2023-09-25 11:03:00,SystemResetWarning,0835.5,4.99,000.00,028.2,026.7,000.0,036.6,029.7,9.3,0000.0,0005.41,0003.28,0002.91
2023-09-25 11:04:00,SystemResetWarning,0835.7,4.99,000.00,028.2,026.7,000.0,036.6,029.7,9.6,0000.0,0005.48,0003.30,0002.92
2023-09-25 11:05:00,SystemResetWarning,0835.5,5.01,000.00,028.2,026.7,000.0,036.6,029.6,9.8,0000.0,0005.36,0003.27,0002.91
2023-09-25 11:06:00,SystemResetWarning,0835.5,5.01,000.00,028.2,026.7,000.0,036.6,029.6,9.8,0000.0,0005.37,0003.26,0002.93
2023-09-25 11:07:00,SystemResetWarning,0835.6,5.00,000.00,028.2,026.7,000.0,036.6,029.6,9.8,0000.0,0005.52,0003.28,0002.92
2023-09-25 11:08:00,SystemResetWarning,0835.6,4.99,000.00,028.2,026.7,000.0,036.6,029.6,9.8,0000.0,0005.64,0003.30,0002.93
2023-09-25 11:09:00,SystemResetWarning,0835.6,4.99,000.00,028.2,026.7,000.0,036.6,029.6,9.8,0000.0,0005.68,0003.31,0002.94
2023-09-25 11:10:00,SystemResetWarning,0835.6,5.00,000.00,028.2,026.7,000.0,036.6,029.6,9.6,0000.0,0005.72,0003.34,0002.95
2023-09-25 11:11:00,SystemResetWarning,0835.6,5.01,000.00,028.2,026.7,000.0,036.6,029.6,9.5,0000.0,0005.77,0003.35,0002.95
2023-09-25 11:12:00,SystemResetWarning,0835.5,5.01,000.00,028.2,026.6,000.0,036.6,029.6,9.4,0000.0,0005.76,0003.37,0002.98
2023-09-25 11:13:00,SystemResetWarning,0835.5,5.01,000.00,028.2,026.6,000.0,036.6,029.6,9.4,0000.0,0005.36,0003.37,0002.99
2023-09-25 11:14:00,SystemResetWarning,0835.6,4.98,000.00,028.2,026.6,000.0,036.6,029.6,9.4,0000.0,0005.49,0003.41,0003.00
2023-09-25 11:15:00,SystemResetWarning,0835.5,4.99,000.00,028.2,026.6,000.0,036.6,029.6,9.3,0000.0,0005.62,0003.46,0003.01
2023-09-25 11:16:00,SystemResetWarning,0835.5,5.00,000.00,028.1,026.6,000.0,036.6,029.6,9.4,0000.0,0006.53,0003.51,0003.02
2023-09-25 11:17:00,SystemResetWarning,0835.4,5.00,000.00,028.1,026.6,000.0,036.6,029.6,9.4,0000.0,0006.54,0003.50,0003.00
2023-09-25 11:18:00,SystemResetWarning,0835.6,5.01,000.00,028.1,026.6,000.0,036.6,029.6,9.5,0000.0,0007.16,0003.50,0003.01
2023-09-25 11:19:00,SystemResetWarning,0835.6,5.00,000.00,028.1,026.6,000.0,036.6,029.6,9.5,0000.0,0007.57,0003.50,0003.01
2023-09-25 11:20:00,SystemResetWarning,0835.5,4.99,000.00,028.1,026.6,000.0,036.6,029.6,9.4,0000.0,0007.56,0003.49,0002.99
2023-09-25 11:21:00,SystemResetWarning,0835.6,4.99,000.00,028.1,026.6,000.0,036.6,029.6,9.4,0000.0,0007.60,0003.47,0002.99
2023-09-25 11:22:00,SystemResetWarning,0835.5,5.00,000.00,028.1,026.6,000.0,036.6,029.6,9.4,0000.0,0007.64,0003.46,0002.98
2023-09-25 11:23:00,SystemResetWarning,0835.6,5.01,000.00,028.1,026.6,000.0,036.6,029.5,9.3,0000.0,0007.74,0003.46,0002.98
2023-09-25 11:24:00,SystemResetWarning,0835.5,5.01,000.00,028.1,026.6,000.0,036.6,029.6,9.3,0000.0,0007.75,0003.45,0002.97
2023-09-25 11:25:00,SystemResetWarning,0835.5,4.99,000.00,028.1,026.6,000.0,036.6,029.5,9.2,0000.0,0007.81,0003.45,0002.98
2023-09-25 11:26:00,SystemResetWarning,0835.6,4.99,000.00,028.1,026.6,000.0,036.6,029.5,9.2,0000.0,0007.74,0003.41,0002.96
2023-09-25 11:27:00,SystemResetWarning,0835.6,5.01,000.00,028.1,026.6,000.0,036.5,029.6,9.2,0000.0,0007.19,0003.37,0002.95
2023-09-25 11:28:00,SystemResetWarning,0835.6,5.01,000.00,028.1,026.6,000.0,036.5,029.6,9.4,0000.0,0007.08,0003.37,0002.96
2023-09-25 11:29:00,SystemResetWarning,0835.6,5.00,000.00,028.1,026.6,000.0,036.5,029.6,9.5,0000.0,0006.72,0003.39,0002.96
2023-09-25 11:30:00,SystemResetWarning,0835.6,4.99,000.00,028.1,026.6,000.0,036.5,029.5,9.8,0000.0,0005.75,0003.38,0002.97
2023-09-25 11:31:00,SystemResetWarning,0835.6,4.99,000.00,028.1,026.5,000.0,036.5,029.5,9.7,0000.0,0005.64,0003.38,0002.98
2023-09-25 11:32:00,SystemResetWarning,0835.6,4.99,000.00,028.1,026.6,000.0,036.5,029.5,9.5,0000.0,0005.39,0003.37,0002.98
2023-09-25 11:33:00,SystemResetWarning,0835.6,5.01,000.00,028.1,026.6,000.0,036.5,029.5,9.5,0000.3,0005.34,0003.37,0002.98
2023-09-25 11:34:00,SystemResetWarning,0835.6,5.00,000.00,028.1,026.6,000.0,036.5,029.5,9.4,0000.1,0005.90,0003.38,0003.00
2023-09-25 11:35:00,SystemResetWarning,0835.6,5.01,000.00,028.1,026.6,000.0,036.5,029.5,9.5,0000.0,0007.03,0003.40,0003.00
2023-09-25 11:36:00,SystemResetWarning,0835.6,5.00,000.00,028.1,026.6,000.0,036.5,029.5,9.5,0000.4,0006.73,0003.36,0003.00
2023-09-25 11:37:00,SystemResetWarning,0835.5,5.00,000.00,028.1,026.5,000.0,036.5,029.5,9.4,0000.8,0007.54,0003.32,0002.99
2023-09-25 11:38:00,SystemResetWarning,0835.5,4.99,000.00,028.1,026.5,000.0,036.5,029.5,9.2,0000.3,0007.61,0003.30,0002.99
2023-09-25 11:39:00,SystemResetWarning,0835.6,5.00,000.00,028.1,026.5,000.0,036.5,029.5,9.2,0000.0,0007.61,0003.29,0002.99
2023-09-25 11:40:00,SystemResetWarning,0835.6,5.00,000.00,028.1,026.5,000.0,036.5,029.5,9.2,0000.0,0007.64,0003.26,0002.98
2023-09-25 11:41:00,SystemResetWarning,0835.6,5.00,000.00,028.1,026.5,000.0,036.5,029.5,9.3,0000.0,0008.27,0003.25,0002.98
2023-09-25 11:42:00,SystemResetWarning,0835.6,5.00,000.00,028.1,026.5,000.0,036.5,029.5,9.3,0000.0,0008.50,0003.23,0002.96
2023-09-25 11:43:00,SystemResetWarning,0835.6,5.00,000.00,028.1,026.5,000.0,036.5,029.5,9.2,0000.0,0008.51,0003.24,0002.96
2023-09-25 11:44:00,SystemResetWarning,0835.6,5.00,000.00,028.0,026.5,000.0,036.5,029.5,9.2,0000.0,0008.50,0003.25,0002.96
2023-09-25 11:45:00,SystemResetWarning,0835.8,5.00,000.00,028.0,026.5,000.0,036.5,029.5,9.2,0000.0,0008.35,0003.24,0002.94
2023-09-25 11:46:00,SystemResetWarning,0835.7,5.00,000.00,028.0,026.5,000.0,036.5,029.5,9.3,0000.0,0007.71,0003.23,0002.92
2023-09-25 11:47:00,SystemResetWarning,0835.7,5.01,000.00,028.0,026.5,000.0,036.5,029.5,9.2,0000.0,0007.92,0003.26,0002.94
2023-09-25 11:48:00,SystemResetWarning,0835.7,5.00,000.00,028.0,026.5,000.0,036.5,029.5,9.4,0000.0,0007.48,0003.31,0002.96
2023-09-25 11:49:00,SystemResetWarning,0835.7,5.01,000.00,028.0,026.5,000.0,036.5,029.5,9.4,0000.0,0007.33,0003.33,0002.98
2023-09-25 11:50:00,SystemResetWarning,0835.7,5.00,000.00,028.0,026.5,000.0,036.5,029.5,9.5,0000.0,0007.29,0003.32,0002.98
2023-09-25 11:51:00,SystemResetWarning,0835.8,5.00,000.00,028.0,026.5,000.0,036.5,029.5,9.6,0000.0,0007.33,0003.34,0002.98
2023-09-25 11:52:00,SystemResetWarning,0835.7,5.00,000.00,028.0,026.5,000.0,036.5,029.5,9.6,0000.0,0006.61,0003.35,0002.99
2023-09-25 11:53:00,SystemResetWarning,0835.7,5.00,000.00,028.0,026.5,000.0,036.5,029.5,9.6,0000.0,0005.84,0003.39,0003.00
2023-09-25 11:54:00,SystemResetWarning,0835.7,5.00,000.00,028.0,026.5,000.0,036.5,029.5,9.6,0000.0,0006.60,0003.41,0003.00
2023-09-25 11:55:00,SystemResetWarning,0835.7,4.99,000.00,028.0,026.5,000.0,036.5,029.5,9.6,0000.0,0006.89,0003.42,0003.01
2023-09-25 11:56:00,SystemResetWarning,0835.7,4.99,000.00,028.0,026.5,000.0,036.5,029.5,9.5,0000.0,0007.14,0003.42,0003.01
2023-09-25 11:57:00,SystemResetWarning,0835.7,5.00,000.00,028.0,026.5,000.0,036.5,029.5,9.5,0000.0,0007.52,0003.42,0003.03
2023-09-25 11:58:00,SystemResetWarning,0835.7,4.99,000.00,028.0,026.5,000.0,036.5,029.5,9.5,0000.0,0007.32,0003.41,0003.03
2023-09-25 11:59:00,SystemResetWarning,0835.8,5.00,000.00,028.0,026.5,000.0,036.5,029.5,9.5,0000.0,0007.27,0003.39,0003.01
